Location: Rounton
(54.4000°N, 1.3500°W)
Time: 08:39:18
(UTC+00:00)

Tiros 1 despin weight - Pass Details

Date: 04 December 2021
Orbit: 592 x 641 km, 48.2° (Epoch: 19 January)

Event Time Altitude Azimuth Distance (km) Brightness Sun altitude
Rises 15:20:43 0° 250° (WSW) 2,828 ? 1.6°
Reaches altitude 10° 15:23:08 10° 242° (WSW) 1,923 ? 1.4°
Maximum altitude 15:27:10 36° 175° (S) 938 ? 0.9°
Drops below altitude 10° 15:31:12 10° 109° (ESE) 1,924 ? 0.5°
Sets 15:33:37 0° 101° (E) 2,828 ? 0.2°
